Home > Weather > Coesfeld > Past weeks

Flag for Germany Past Weather in Coesfeld, North Rhine-Westphalia, Germany — Yesterday and Last 2 Weeks

Now
63 °F

Mild.


Feels Like: 63 °F
Forecast: 53 / 62 °F
Wind: 9 mph from Southwest

Location: Rheine-Bentlage

Current Time: Jun 26, 2016 at 2:02:58 PM

Latest Report: Jun 26, 2016 at 1:20 PM


Visibility: N/A

Pressure: 30.01 "Hg

Humidity: 68%

Dew Point: 52 °F

Location of CoesfeldLocation

Past Weather in Coesfeld — Graph

°F

Coesfeld Temperature Yesterday

Maximum temperature yesterday: 64 °F (at 1:20 AM)
Minimum temperature yesterday: 57 °F (at 10:20 PM)
Average temperature yesterday: 61 °F

High & Low Weather Summary for the Past Weeks

 TemperatureHumidityPressure
High90 °F (Jun 23, 6:20 PM)100% (Jun 12, 9:20 PM)30.24 "Hg (Jun 12, 9:20 PM)
Low50 °F (Jun 20, 12:20 AM)40% (Jun 11, 6:20 PM)29.45 "Hg (Jun 14, 4:20 PM)
Average62 °F83%29.86 "Hg
* Reported Jun 11 12:20 PM — Jun 26 12:20 PM, Coesfeld, Weather by CustomWeather, © 2016

Note: Actual official high and low records may vary slightly from our data, if they occured in-between our weather recording intervals... More about our weather records

Advertising

Coesfeld Weather History for the Previous 24 Hours

Scroll right to see more
 ConditionsComfort  
Time TempWeatherWind HumidityBarometerVisibility
12:20 PM
Sun, Jun 26
63 °FMild.8 mph73%30.04 "HgN/A
11:20 AM59 °FCool.8 mph77%30.04 "HgN/A
10:20 AM59 °FCool.13 mph77%30.01 "HgN/A
9:20 AM57 °FCool.9 mph82%30.01 "HgN/A
8:20 AM57 °FCool.6 mph88%30.01 "HgN/A
7:20 AM55 °FCool.6 mph88%30.01 "HgN/A
6:20 AM54 °FCool.3 mph94%30.01 "HgN/A
5:20 AM52 °FCool.3 mph100%29.98 "HgN/A
4:20 AM55 °FCool.3 mph94%29.98 "HgN/A
3:20 AM57 °FCool.8 mph94%29.98 "HgN/A
2:20 AM57 °FCool.6 mph100%29.98 "HgN/A
1:20 AM55 °FCool.3 mph100%29.98 "HgN/A
12:20 AM57 °FCool.5 mph100%30.01 "HgN/A
11:20 PM
Sat, Jun 25
57 °FCool.3 mph94%29.98 "HgN/A
10:20 PM57 °FCool.3 mph94%29.98 "HgN/A
9:20 PM59 °FCool.7 mph94%29.98 "HgN/A
8:20 PM59 °FCool.10 mph94%29.95 "HgN/A
7:20 PM59 °FCool.5 mph94%29.95 "HgN/A
6:20 PM59 °FCool.8 mph94%29.95 "HgN/A
5:20 PM59 °FCool.8 mph94%29.95 "HgN/A
4:20 PM59 °FCool.8 mph94%29.95 "HgN/A
3:20 PM61 °FCool.10 mph94%29.95 "HgN/A
2:20 PM61 °FCool.7 mph94%29.95 "HgN/A
Weather by CustomWeather, © 2016

See weather overviewHow to use our weather pages